Juneau, WI

6:16 PM CST on December 15, 2019 (GMT -0600)
Dodge County

Weather History for KUNU - October, 2019

Change the Weather History Date:

Friday, October 18, 2019

  Actual Average Record
Temperature  
Mean Temperature 44 °F -  
Max Temperature 56 °F 56 °F 75 °F (1971)
Min Temperature 33 °F 39 °F 16 °F (1992)
Degree Days  
Heating Degree Days 20    
Moisture  
Dew Point 39 °F    
Average Humidity 82    
Maximum Humidity 100    
Minimum Humidity 53    
Precipitation  
Precipitation 0.00 in - - ()
Sea Level Pressure  
Sea Level Pressure 29.98 in    
Wind  
Wind Speed 5 mph ()    
Max Wind Speed 16 mph    
Max Gust Speed 22 mph    
Visibility 8.3 miles    
Events      
Averages and records for this station are not official NWS values.
T = Trace of Precipitation, MM = Missing Value Source: Averaged Metar Reports

Daily Weather History Graph

Daily Weather History Graph

Search for Another Location

Airport or City:

Astronomy

Oct. 18, 2019 Rise Set
Actual Time 7:12 AM CDT 6:07 PM CDT
Civil Twilight 6:43 AM CDT 6:35 PM CDT
Nautical Twilight 6:10 AM CDT 7:09 PM CDT
Astronomical Twilight 5:36 AM CDT 7:42 PM CDT
Moon 9:16 PM CDT (10/18) 11:51 AM CDT (10/18)
Length of Visible Light 11h 52m
Length of Day
10h 54m
Waning Gibbous, 78% of the Moon is Illuminated
Oct 18
Waning Gibbous
Oct 21
Last Quarter
Oct 27
New
Nov 4
First Quarter
Nov 12
Full

Hourly Weather History & Observations

Time (CDT) Temp. Windchill Dew Point Humidity Pressure Visibility Wind Dir Wind Speed Gust Speed Precip Events Conditions
12:15 AM 37.4 °F 34.9 °F 36.9 °F 98% 30.04 in 10.0 mi ESE 3.5 mph - N/A   Clear
12:35 AM 36.7 °F - 36.5 °F 99% 30.04 in 10.0 mi Calm Calm - N/A   Clear
12:55 AM 36.5 °F 32.7 °F 36.0 °F 98% 30.04 in 10.0 mi ESE 4.6 mph - N/A   Clear
1:15 AM 36.1 °F 32.3 °F 35.6 °F 98% 30.04 in 10.0 mi ESE 4.6 mph - N/A   Clear
1:35 AM 35.8 °F 33.0 °F 35.2 °F 98% 30.05 in 10.0 mi SE 3.5 mph - N/A   Clear
1:55 AM 36.0 °F 33.3 °F 35.6 °F 99% 30.05 in 10.0 mi ESE 3.5 mph - N/A   Clear
2:15 AM 35.8 °F - 35.6 °F 99% 30.05 in 10.0 mi Calm Calm - N/A   Clear
2:35 AM 35.6 °F 32.8 °F 35.4 °F 99% 30.05 in 10.0 mi SE 3.5 mph - N/A   Clear
2:55 AM 34.7 °F - 34.3 °F 99% 30.06 in 7.0 mi Calm Calm - N/A   Clear
3:15 AM 35.2 °F 32.4 °F 35.1 °F 99% 30.05 in 7.0 mi ESE 3.5 mph - N/A   Clear
3:35 AM 35.4 °F 32.6 °F 35.2 °F 99% 30.05 in 5.0 mi ESE 3.5 mph - N/A   Clear
3:55 AM 34.7 °F - 34.7 °F 100% 30.06 in 4.0 mi Calm Calm - N/A   Clear
4:15 AM 35.1 °F 32.2 °F 34.9 °F 99% 30.05 in 5.0 mi ESE 3.5 mph - N/A   Clear
4:35 AM 33.6 °F - 33.4 °F 99% 30.06 in 4.0 mi Calm Calm - N/A   Clear
4:55 AM 34.7 °F 31.8 °F 34.5 °F 99% 30.05 in 4.0 mi ESE 3.5 mph - N/A   Clear
5:15 AM 34.2 °F - 34.0 °F 99% 30.05 in 3.0 mi Calm Calm - N/A   Clear
5:35 AM 34.3 °F 31.4 °F 34.3 °F 100% 30.05 in 4.0 mi ESE 3.5 mph - N/A   Clear
5:55 AM 34.7 °F 31.8 °F 34.7 °F 100% 30.05 in 3.0 mi ESE 3.5 mph - N/A   Clear
6:35 AM 34.7 °F 31.8 °F 34.7 °F 100% 30.05 in 2.5 mi ESE 3.5 mph - N/A   Clear
6:55 AM 34.9 °F - 34.9 °F 100% 30.06 in 2.5 mi Calm Calm - N/A   Clear
7:15 AM 35.1 °F 32.2 °F 35.1 °F 100% 30.06 in 2.5 mi ESE 3.5 mph - N/A   Clear
7:35 AM 35.2 °F 32.4 °F 35.2 °F 100% 30.05 in 2.0 mi ESE 3.5 mph - N/A   Clear
7:55 AM 35.6 °F 31.7 °F 35.6 °F 100% 30.05 in 2.5 mi ESE 4.6 mph - N/A   Clear
8:15 AM 37.6 °F 35.1 °F 37.6 °F 100% 30.06 in 5.0 mi SE 3.5 mph - N/A   Clear
8:35 AM 37.8 °F 35.3 °F 37.8 °F 100% 30.06 in 5.0 mi ESE 3.5 mph - N/A   Clear
8:55 AM 39.4 °F 36.1 °F 39.4 °F 100% 30.05 in 7.0 mi SE 4.6 mph - N/A   Clear
9:35 AM 43.0 °F 37.7 °F 41.0 °F 93% 30.04 in 10.0 mi SE 9.2 mph - N/A   Clear
9:55 AM 45.5 °F 39.9 °F 41.2 °F 85% 30.04 in 10.0 mi SE 11.5 mph - N/A   Clear
10:15 AM 46.9 °F - 41.4 °F 81% 30.04 in 10.0 mi SSE 10.4 mph - N/A   Clear
10:35 AM 48.2 °F - 40.8 °F 76% 30.03 in 10.0 mi SSE 16.1 mph 19.6 mph N/A   Clear
10:55 AM 49.3 °F - 40.8 °F 73% 30.02 in 10.0 mi SE 13.8 mph 18.4 mph N/A   Clear
11:15 AM 50.7 °F - 41.0 °F 69% 30.02 in 10.0 mi SSE 11.5 mph 16.1 mph N/A   Clear
11:35 AM 52.0 °F - 41.7 °F 68% 30.03 in 10.0 mi SSE 9.2 mph 16.1 mph N/A   Clear
11:55 AM 51.8 °F - 40.5 °F 65% 30.02 in 10.0 mi SE 12.7 mph - N/A   Clear
12:15 PM 52.3 °F - 41.0 °F 65% 30.01 in 10.0 mi SSE 11.5 mph 17.3 mph N/A   Clear
12:35 PM 53.2 °F - 40.6 °F 62% 30.00 in 10.0 mi SSE 12.7 mph 19.6 mph N/A   Clear
12:55 PM 54.1 °F - 41.2 °F 62% 29.99 in 10.0 mi SE 13.8 mph 17.3 mph N/A   Clear
1:15 PM 54.7 °F - 40.6 °F 59% 29.98 in 10.0 mi SSE 11.5 mph 21.9 mph N/A   Clear
1:35 PM 55.2 °F - 40.6 °F 58% 29.97 in 10.0 mi SSE 12.7 mph 19.6 mph N/A   Clear
2:15 PM 56.1 °F - 40.1 °F 55% 29.95 in 10.0 mi South 11.5 mph 18.4 mph N/A   Clear
2:35 PM 56.3 °F - 40.8 °F 56% 29.94 in 10.0 mi SE 11.5 mph 18.4 mph N/A   Clear
2:55 PM 55.9 °F - 40.3 °F 56% 29.93 in 10.0 mi SSE 11.5 mph 19.6 mph N/A   Clear
3:15 PM 56.5 °F - 40.8 °F 56% 29.92 in 10.0 mi SE 11.5 mph 18.4 mph N/A   Clear
3:35 PM 56.7 °F - 40.8 °F 55% 29.92 in 10.0 mi SE 13.8 mph 19.6 mph N/A   Clear
3:55 PM 56.1 °F - 40.3 °F 55% 29.92 in 10.0 mi SE 11.5 mph - N/A   Clear
4:15 PM 56.7 °F - 39.7 °F 53% 29.91 in 10.0 mi SSE 13.8 mph 19.6 mph N/A   Clear
4:55 PM 55.9 °F - 39.9 °F 55% 29.90 in 10.0 mi SSE 9.2 mph - N/A   Clear
5:15 PM 55.6 °F - 40.1 °F 56% 29.90 in 10.0 mi SSE 12.7 mph - N/A   Clear
5:35 PM 54.5 °F - 40.1 °F 58% 29.89 in 10.0 mi SE 11.5 mph 19.6 mph N/A   Clear
5:55 PM 53.4 °F - 40.3 °F 61% 29.89 in 10.0 mi SE 8.1 mph - N/A   Clear
6:15 PM 51.8 °F - 40.3 °F 65% 29.88 in 10.0 mi SE 8.1 mph - N/A   Clear
7:55 PM 47.3 °F - 41.9 °F 82% 29.89 in 10.0 mi SE 9.2 mph - N/A   Clear
8:15 PM 46.6 °F - 41.5 °F 83% 29.88 in 10.0 mi SE 8.1 mph - N/A   Clear
8:35 PM 46.0 °F 41.9 °F 41.4 °F 84% 29.88 in 10.0 mi SE 8.1 mph - N/A   Clear
8:55 PM 45.5 °F 41.3 °F 41.4 °F 85% 29.88 in 10.0 mi SE 8.1 mph - N/A   Clear
9:15 PM 45.5 °F 41.3 °F 41.4 °F 85% 29.88 in 10.0 mi SE 8.1 mph - N/A   Clear
9:35 PM 44.8 °F 39.4 °F 41.2 °F 87% 29.87 in 10.0 mi SE 10.4 mph - N/A   Clear
9:55 PM 45.3 °F 42.3 °F 41.0 °F 85% 29.89 in 10.0 mi SSE 5.8 mph - N/A   Clear
10:15 PM 45.5 °F 39.6 °F 40.6 °F 83% 29.88 in 10.0 mi SE 12.7 mph 17.3 mph N/A   Clear
10:55 PM 46.8 °F - 40.5 °F 79% 29.87 in 10.0 mi SE 9.2 mph - N/A   Clear
11:15 PM 46.4 °F 41.9 °F 40.3 °F 79% 29.87 in 10.0 mi SE 9.2 mph - N/A   Clear
11:35 PM 46.2 °F 41.7 °F 40.1 °F 79% 29.86 in 10.0 mi SE 9.2 mph - N/A   Clear
11:55 PM 46.4 °F 40.7 °F 40.1 °F 79% 29.86 in 10.0 mi SE 12.7 mph - N/A   Clear